Temp
10 9 8 7 6 5 5 4 4 3 3 2 2 3 3 3 3 2 2 1 1 1 1 0 0 0 0
10 10 9 8 6 5 5 4 4 3 2 2 2 2 2 2 2 1 1 1 1 0 0 0 -0 -0 -1
9 9 9 8 7 5 4 4 3 2 1 1 1 2 2 1 1 1 1 1 0 0 -0 -0 -1 -1 -1
9 9 8 8 7 6 4 3 2 2 1 1 1 2 1 1 0 0 1 -0 -0 -1 -1 -1 -1 -1 -1
8 8 9 8 8 8 5 3 2 2 1 1 1 1 1 1 0 0 -0 -0 -1 -1 -1 -1 -1 -2 -2
7 7 8 8 8 7 5 3 1 1 -0 1 0 2 1 0 -0 -1 -1 -1 -2 -1 -2 -2 -2 -2 -2
8 7 7 8 8 6 5 5 4 3 1 0 -1 0 -0 -1 -1 -2 -2 -2 -2 -2 -2 -2 -3 -3 -3
7 6 6 6 6 6 5 4 2 1 1 0 -0 -1 -2 -2 -2 -2 -3 -2 -3 -2 -3 -3 -4 -4 -4
6 6 6 6 4 3 3 2 1 0 -0 -2 -2 -3 -4 -4 -4 -4 -3 -4 -4 -3 -3 -4 -5 -5 -4
6 6 6 5 4 3 2 2 1 -0 -1 -3 -3 -4 -5 -4 -5 -4 -4 -5 -4 -5 -7 -8 -6 -5 -5
6 6 5 3 2 1 1 1 0 0 0 -2 -3 -3 -5 -4 -4 -4 -5 -5 -5 -5 -6 -6 -6 -6 -5
6 4 4 3 2 1 0 -1 -1 -1 -1 -2 -2 -3 -4 -5 -4 -5 -5 -5 -5 -5 -6 -6 -6 -6 -6
4 4 4 2 1 0 -1 -2 -2 -3 -3 -4 -4 -4 -5 -5 -5 -6 -6 -5 -5 -6 -6 -6 -6 -7 -7
3 3 2 0 -0 -0 -2 -3 -4 -4 -5 -6 -6 -6 -6 -6 -6 -6 -5 -6 -6 -6 -7 -7 -7 -8 -8
1 1 1 -1 -2 -3 -3 -4 -4 -5 -6 -6 -7 -7 -7 -7 -6 -6 -6 -6 -7 -7 -8 -8 -8 -8 -8
-1 -0 -1 -2 -3 -4 -4 -5 -5 -6 -6 -6 -7 -7 -7 -7 -6 -6 -7 -7 -8 -8 -8 -9 -8 -9 -9
-2 -3 -3 -4 -4 -5 -5 -6 -6 -7 -7 -7 -8 -8 -7 -7 -7 -7 -7 -8 -8 -8 -9 -10 -10 -9 -10
Height
1567 1569 1571 1573 1576 1578 1580 1582 1582 1584 1585 1586 1588 1589 1589 1590 1590 1591 1592 1592 1592 1592 1591 1591 1591 1590 1589
1560 1562 1563 1566 1569 1571 1573 1575 1576 1577 1579 1580 1582 1584 1585 1585 1586 1586 1586 1588 1589 1589 1588 1587 1588 1587 1586
1553 1555 1557 1558 1561 1563 1565 1567 1569 1570 1573 1574 1576 1577 1578 1579 1580 1580 1582 1583 1583 1584 1584 1584 1584 1583 1582
1544 1546 1550 1551 1552 1554 1556 1558 1561 1562 1565 1566 1570 1571 1572 1574 1576 1577 1577 1578 1579 1580 1580 1580 1580 1579 1577
1531 1534 1537 1541 1541 1543 1547 1551 1554 1556 1557 1559 1563 1567 1568 1569 1570 1572 1573 1573 1573 1574 1574 1575 1574 1573 1572
1521 1524 1525 1529 1531 1534 1538 1541 1545 1546 1549 1552 1557 1559 1561 1563 1565 1566 1567 1568 1569 1569 1569 1569 1569 1568 1567
1508 1511 1513 1519 1524 1525 1526 1531 1533 1538 1541 1543 1548 1551 1554 1557 1558 1561 1562 1563 1564 1564 1564 1564 1563 1563 1561
1502 1506 1509 1512 1514 1517 1520 1524 1528 1532 1535 1536 1540 1543 1548 1551 1552 1554 1556 1557 1559 1559 1559 1558 1558 1557 1557
1493 1495 1498 1501 1504 1507 1509 1514 1517 1521 1525 1528 1532 1537 1539 1543 1545 1548 1550 1552 1553 1552 1552 1552 1552 1551 1551
1479 1482 1485 1488 1490 1495 1500 1502 1507 1511 1514 1519 1522 1527 1531 1534 1538 1541 1543 1545 1547 1547 1546 1547 1547 1546 1546
1466 1469 1471 1475 1479 1483 1487 1492 1496 1500 1505 1510 1514 1519 1523 1526 1529 1533 1535 1537 1540 1540 1541 1542 1541 1540 1539
1450 1453 1458 1462 1468 1473 1478 1483 1488 1495 1501 1504 1507 1511 1515 1520 1523 1527 1529 1532 1533 1534 1535 1535 1535 1534 1533
1436 1442 1447 1454 1458 1463 1469 1476 1481 1487 1493 1497 1501 1505 1509 1513 1517 1521 1525 1526 1526 1527 1529 1529 1529 1528 1528
1424 1431 1437 1444 1449 1452 1461 1466 1473 1479 1486 1491 1495 1500 1504 1508 1513 1516 1518 1520 1520 1521 1522 1522 1522 1521 1522
1415 1420 1425 1435 1440 1446 1453 1458 1464 1470 1477 1483 1488 1493 1499 1504 1507 1511 1513 1513 1515 1515 1515 1517 1518 1516 1515
1409 1410 1415 1425 1429 1438 1448 1454 1459 1466 1471 1476 1483 1489 1494 1498 1502 1505 1506 1507 1508 1508 1508 1509 1511 1510 1510
1400 1404 1412 1420 1425 1432 1439 1447 1456 1463 1467 1473 1479 1485 1488 1492 1498 1500 1501 1501 1502 1502 1502 1501 1502 1506 1504
Wind_Speed
26 34 34 33 35 34 33 30 29 27 25 24 24 21 19 19 17 16 14 14 14 14 14 15 14 12 13
30 29 33 35 34 35 35 33 32 31 29 26 25 25 23 21 18 17 16 16 16 16 16 15 15 15 15
35 32 32 34 36 37 37 35 34 33 30 29 28 27 25 23 21 19 19 18 17 17 17 16 16 17 17
39 37 35 36 37 38 40 40 38 36 32 33 28 28 26 24 23 20 20 19 18 17 18 17 17 18 18
46 43 38 40 42 41 42 39 37 35 35 35 32 25 25 25 24 21 20 20 19 18 18 19 19 19 18
45 46 45 46 41 42 42 41 40 40 37 36 30 28 27 26 23 22 21 20 19 19 19 19 20 20 19
55 54 52 48 43 44 44 45 44 40 38 37 34 33 29 26 25 23 22 20 19 20 19 20 20 20 20
50 51 46 47 44 42 41 40 39 39 35 33 36 35 30 28 25 25 24 22 21 21 19 20 21 20 21
49 45 45 47 42 38 42 41 41 42 39 37 33 33 32 32 29 27 26 24 21 22 20 20 19 21 21
52 50 49 47 46 41 41 42 43 42 43 41 38 34 30 32 29 29 27 22 21 20 19 17 19 20 22
54 52 49 47 46 45 43 41 43 45 36 39 39 35 30 12 29 30 24 24 23 22 21 21 22 25 25
57 54 50 48 47 44 42 39 38 37 33 32 31 33 32 27 16 19 20 20 20 21 22 23 24 25 25
56 53 52 48 44 41 38 35 34 31 30 27 23 23 26 26 24 20 19 20 20 22 21 22 24 23 20
53 50 48 47 45 40 39 37 35 33 29 24 23 23 22 21 20 19 19 17 18 16 17 18 20 22 22
51 50 47 46 41 38 39 40 39 38 34 30 28 24 23 22 21 19 18 20 19 19 21 20 18 20 20
49 48 47 47 43 42 39 39 37 35 32 30 27 25 23 21 19 18 19 18 18 20 19 19 18 18 20
47 43 42 42 41 40 38 36 33 32 30 27 26 24 23 21 17 16 15 15 16 18 18 19 20 19 21
Wind_Direction
239 238 239 238 239 239 240 242 246 247 251 245 247 252 253 254 256 260 263 265 268 273 273 276 281 284 289
241 239 238 239 239 238 237 240 243 246 248 249 245 249 253 253 251 252 256 261 265 268 270 275 280 287 290
242 244 245 241 236 234 233 236 239 243 247 246 241 245 245 247 246 248 254 259 262 264 268 273 279 284 285
237 246 251 243 237 236 232 232 234 238 241 244 242 239 239 244 247 248 252 255 260 264 268 273 277 280 283
228 234 244 239 238 236 233 234 235 240 239 241 240 244 242 244 248 250 253 255 257 260 265 271 275 279 280
232 240 242 242 240 236 232 225 225 232 232 237 238 242 241 243 247 248 249 252 255 259 266 271 278 281 282
239 241 241 242 248 237 235 235 234 232 230 231 233 236 237 242 242 245 247 248 255 263 268 272 274 276 280
244 248 252 249 250 250 243 236 235 236 233 234 235 234 235 236 238 243 242 248 257 263 266 268 270 277 279
239 242 247 246 243 240 232 229 228 229 229 233 233 231 229 234 237 238 243 250 254 265 264 270 274 273 276
234 240 242 241 240 233 235 229 227 227 228 229 231 229 231 235 231 233 242 240 250 258 262 263 270 278 282
240 236 236 234 233 230 230 229 230 231 237 232 231 230 227 221 228 233 231 241 251 256 260 267 272 277 281
234 230 232 233 233 229 228 226 228 237 243 238 234 231 225 222 207 212 226 239 248 254 259 265 270 275 278
234 233 233 232 226 225 223 221 223 228 232 230 225 225 220 221 225 231 237 242 250 254 261 265 270 272 275
232 229 226 222 218 219 213 210 211 209 209 211 208 201 202 212 226 235 241 242 253 257 259 260 266 275 280
226 222 219 217 213 212 211 208 207 204 200 198 196 201 210 222 230 236 243 249 255 259 264 268 272 275 278
224 219 215 210 206 204 207 206 204 202 201 199 199 204 213 222 230 235 243 252 256 261 266 271 270 270 277
219 215 210 209 203 201 199 200 203 203 200 199 203 211 215 222 229 237 246 252 256 262 267 272 279 278 282